Weather History for 94120 - November, 2013

Change the Weather History Date:

Friday, November 8, 2013

  Actual Average Record
Temperature  
Mean Temperature 84 °F -  
Max Temperature 92 °F 92 °F - ()
Min Temperature 77 °F 78 °F - ()
Cooling Degree Days 20    
Growing Degree Days 34 (Base 50)    
Moisture  
Dew Point 73 °F    
Average Humidity 66    
Maximum Humidity 94    
Minimum Humidity 39    
Precipitation  
Precipitation 0.01 in 0.21 in - ()
Sea Level Pressure  
Sea Level Pressure 29.78 in    
Wind  
Wind Speed 9 mph ()    
Max Wind Speed 18 mph    
Max Gust Speed -    
Visibility 8.1 miles    
Events Rain , Thunderstorm    
T = Trace of Precipitation, MM = Missing Value Source: Averaged Metar Reports

Daily Weather History Graph

Daily Weather History Graph

Search for Another Location

Airport or City:

Trip Planner

Search our weather history database for the weather conditions in past years. The results will help you decide how hot, cold, wet, or windy it might be!

Date:

Astronomy

Nov. 08, 2013 Rise Set
Actual Time 6:11 AM ACST 6:48 PM ACST
Civil Twilight 5:49 AM ACST 7:11 PM ACST
Nautical Twilight 5:23 AM ACST 7:37 PM ACST
Astronomical Twilight 4:56 AM ACST 8:03 PM ACST
Moon 10:30 AM ACST (11/8) 11:29 PM ACST (11/8)
Length of Visible Light 13h 21m
Length of Day
12h 37m
Waxing Crescent, 26% of the Moon is Illuminated
Nov 8
Waxing Crescent
Nov 10
First Quarter
Nov 18
Full
Nov 26
Last Quarter
Dec 3
New

Hourly Weather History & Observations

Time (ACST) Temp. Heat Index Dew Point Humidity Pressure Visibility Wind Dir Wind Speed Gust Speed Precip Events Conditions
12:00 AM 84 °F - 75 °F 68% 29.79 in 19 mi NNW 11.5 mph - -   Partly Cloudy
12:00 AM 84.2 °F 92.3 °F 75.2 °F 74% 29.80 in 6.2 mi NNW 11.5 mph - N/A   Partly Cloudy
12:30 AM 83 °F - 74 °F 66% 29.79 in - North 10.4 mph - -  
12:30 AM 84.2 °F 90.9 °F 73.4 °F 70% 29.80 in 6.2 mi North 10.4 mph - N/A   Partly Cloudy
1:00 AM 82.4 °F 88.2 °F 73.4 °F 74% 29.77 in 6.2 mi North 9.2 mph - N/A   Partly Cloudy
1:30 AM 82.4 °F 89.5 °F 75.2 °F 79% 29.77 in 6.2 mi North 6.9 mph - N/A   Partly Cloudy
2:00 AM 82.4 °F 89.5 °F 75.2 °F 79% 29.77 in 6.2 mi North 8.1 mph - N/A   Partly Cloudy
2:30 AM 82.4 °F 89.5 °F 75.2 °F 79% 29.77 in 6.2 mi North 8.1 mph - N/A   Partly Cloudy
3:00 AM 82 °F - 75 °F 74% 29.77 in 19 mi North 5.8 mph - -   Partly Cloudy
3:00 AM 82.4 °F 89.5 °F 75.2 °F 79% 29.77 in 6.2 mi North 5.8 mph - N/A   Partly Cloudy
3:30 AM 82 °F - 75 °F 73% 29.77 in - NNW 5.8 mph - -  
3:30 AM 82.4 °F 89.5 °F 75.2 °F 79% 29.77 in 6.2 mi NNW 5.8 mph - N/A   Partly Cloudy
4:00 AM 80.6 °F 86.2 °F 75.2 °F 84% 29.77 in 6.2 mi North 5.8 mph - N/A   Partly Cloudy
4:30 AM 80.6 °F 87.1 °F 77.0 °F 89% 29.77 in 6.2 mi North 4.6 mph - N/A   Scattered Clouds
5:00 AM 80.6 °F 86.2 °F 75.2 °F 84% 29.77 in 6.2 mi NNE 6.9 mph - N/A Thunderstorm Scattered Clouds
5:15 AM 80.6 °F 86.2 °F 75.2 °F 84% 29.80 in 2.5 mi NE 5.8 mph - N/A Rain Rain Showers
5:30 AM 78.8 °F - 77.0 °F 94% 29.80 in 6.2 mi ENE 8.1 mph - N/A   Scattered Clouds
6:00 AM 78 °F - 76 °F 90% 29.80 in 19 mi NE 5.8 mph - - Rain Light Rain Showers
6:00 AM 78.8 °F - 75.2 °F 89% 29.80 in 6.2 mi NE 5.8 mph - N/A   Mostly Cloudy
6:30 AM 78 °F - 75 °F 88% 29.81 in - ENE 6.9 mph - -  
6:30 AM 78.8 °F - 75.2 °F 89% 29.80 in 6.2 mi ENE 6.9 mph - N/A   Mostly Cloudy
7:00 AM 78.8 °F - 75.2 °F 89% 29.80 in 6.2 mi East 5.8 mph - N/A   Mostly Cloudy
7:30 AM 82.4 °F 89.5 °F 75.2 °F 79% 29.83 in 6.2 mi East 6.9 mph - N/A   Scattered Clouds
8:00 AM 84.2 °F 92.3 °F 75.2 °F 74% 29.83 in 6.2 mi East 5.8 mph - N/A   Partly Cloudy
8:30 AM 86.0 °F 95.1 °F 75.2 °F 70% 29.83 in 6.2 mi SE 4.6 mph - N/A   Partly Cloudy
9:00 AM 87 °F - 73 °F 56% 29.85 in 19 mi East 5.8 mph - -   Partly Cloudy
9:00 AM 87.8 °F 95.6 °F 73.4 °F 62% 29.86 in 6.2 mi East 5.8 mph - N/A   Partly Cloudy
9:30 AM 87 °F - 73 °F 55% 29.85 in - NE 4.6 mph - -  
9:30 AM 87.8 °F 95.6 °F 73.4 °F 62% 29.86 in 6.2 mi NE 4.6 mph - N/A   Partly Cloudy
10:00 AM 87.8 °F 95.6 °F 73.4 °F 62% 29.86 in 6.2 mi ENE 8.1 mph - N/A   Partly Cloudy
10:30 AM 87.8 °F 93.8 °F 71.6 °F 58% 29.83 in 6.2 mi ESE 5.8 mph - N/A   Partly Cloudy
11:00 AM 89.6 °F 94.7 °F 69.8 °F 52% 29.83 in 6.2 mi East 8.1 mph - N/A   Partly Cloudy
11:30 AM 89.6 °F 94.7 °F 69.8 °F 52% 29.83 in 6.2 mi WNW 9.2 mph - N/A   Partly Cloudy
12:00 PM 92 °F - 70 °F 39% 29.81 in 19 mi WNW 10.4 mph - -   Partly Cloudy
12:00 PM 91.4 °F 96.8 °F 69.8 °F 49% 29.80 in 6.2 mi WNW 10.4 mph - N/A   Scattered Clouds
12:30 PM 89 °F - 74 °F 53% 29.79 in - WSW 11.5 mph - -  
12:30 PM 89.6 °F 98.2 °F 73.4 °F 59% 29.77 in 6.2 mi WSW 11.5 mph - N/A   Partly Cloudy
1:00 PM 89.6 °F 98.2 °F 73.4 °F 59% 29.77 in 6.2 mi NW 10.4 mph - N/A   Scattered Clouds
1:30 PM 87.8 °F 97.6 °F 75.2 °F 66% 29.74 in 6.2 mi WNW 11.5 mph - N/A   Scattered Clouds
2:00 PM 89.6 °F 98.2 °F 73.4 °F 59% 29.74 in 6.2 mi NW 11.5 mph - N/A   Partly Cloudy
2:30 PM 89.6 °F 98.2 °F 73.4 °F 59% 29.71 in 6.2 mi NW 11.5 mph - N/A   Partly Cloudy
3:00 PM 90 °F - 73 °F 48% 29.72 in 19 mi NNW 12.7 mph - -   Partly Cloudy
3:00 PM 89.6 °F 98.2 °F 73.4 °F 59% 29.71 in 6.2 mi NNW 12.7 mph - N/A   Partly Cloudy
3:30 PM 90 °F - 71 °F 44% 29.71 in - North 15.0 mph - -  
3:30 PM 89.6 °F 96.2 °F 71.6 °F 55% 29.71 in 6.2 mi North 15.0 mph - N/A   Partly Cloudy
4:00 PM 91.4 °F 96.8 °F 69.8 °F 49% 29.71 in 6.2 mi North 16.1 mph - N/A   Partly Cloudy
4:30 PM 91.4 °F 95.4 °F 68.0 °F 46% 29.71 in 6.2 mi North 15.0 mph - N/A   Scattered Clouds
5:00 PM 89.6 °F 92.2 °F 66.2 °F 46% 29.71 in 6.2 mi North 13.8 mph - N/A   Scattered Clouds
5:30 PM 89.6 °F 92.2 °F 66.2 °F 46% 29.71 in 6.2 mi North 12.7 mph - N/A   Scattered Clouds
6:00 PM 89 °F - 68 °F 41% 29.72 in 19 mi North 12.7 mph - -   Haze
6:00 PM 89.6 °F 93.4 °F 68.0 °F 49% 29.71 in 6.2 mi North 12.7 mph - N/A   Scattered Clouds
6:30 PM 88 °F - 69 °F 44% 29.72 in - North 11.5 mph - -  
6:30 PM 87.8 °F 92.6 °F 69.8 °F 55% 29.71 in 6.2 mi North 11.5 mph - N/A   Partly Cloudy
7:00 PM 86.0 °F 90.4 °F 69.8 °F 58% 29.74 in 6.2 mi North 8.1 mph - N/A   Partly Cloudy
7:30 PM 86.0 °F 91.8 °F 71.6 °F 62% 29.74 in - North 6.9 mph - N/A   Clear
8:00 PM 86.0 °F 93.4 °F 73.4 °F 66% 29.74 in - NNE 6.9 mph - N/A   Clear
8:30 PM 84.2 °F 89.6 °F 71.6 °F 66% 29.77 in 6.2 mi NNE 5.8 mph - N/A   Scattered Clouds
9:00 PM 86 °F - 75 °F 63% 29.78 in 19 mi NNW 18.4 mph - -   Partly Cloudy
9:00 PM 86.0 °F 95.1 °F 75.2 °F 70% 29.77 in 6.2 mi NNW 18.4 mph - N/A   Partly Cloudy
9:30 PM 85 °F - 75 °F 66% 29.80 in - NNW 17.3 mph - -  
9:30 PM 86.0 °F 95.1 °F 75.2 °F 70% 29.80 in 6.2 mi NNW 17.3 mph - N/A   Partly Cloudy
10:00 PM 86.0 °F 95.1 °F 75.2 °F 70% 29.80 in 6.2 mi NW 16.1 mph - N/A   Partly Cloudy
10:30 PM 86.0 °F 93.4 °F 73.4 °F 66% 29.80 in - NW 12.7 mph - N/A   Clear
11:00 PM 84.2 °F 90.9 °F 73.4 °F 70% 29.80 in - NNW 10.4 mph - N/A   Clear
11:30 PM 84.2 °F 92.3 °F 75.2 °F 74% 29.80 in 6.2 mi NNW 9.2 mph - N/A   Partly Cloudy